Flag for Brazil Weather past 2 weeks in Santos, São Paulo, Brazil

Now
52 °F

Fog.


Feels Like: 52 °F
Forecast: 60 / 78 °F
Wind: 2 mph from South

Location: Sao Paulo Airport

Current Time: Jul 29, 2015 at 6:38:59 AM

Latest Report: Jul 29, 2015 at 6:00 AM


Visibility: 2 mi

Pressure: 30.24 "Hg

Humidity: 94%

Dew point: 50 °F

Location of SantosLocation

Historic Weather in Santos — Graph

°F

Santos temperature yesterday

Maximum temperature yesterday: 73 °F (at 1:00 PM)
Minimum temperature yesterday: 36 °F (at 8:00 AM)
Average temperature yesterday: 60 °F

Past Weeks' High & Low Weather Summary

 TemperatureHumidityPressure
High84 °F (Jul 14, 2:00 PM)100% (Jul 28, 8:00 AM)30.33 "Hg (Jul 28, 8:00 AM)
Low36 °F (Jul 28, 8:00 AM)27% (Jul 28, 3:00 PM)30.04 "Hg (Jul 21, 1:00 AM)
Average64 °F70%30.20 "Hg
* Reported Jul 14 5:00 AM — Jul 29 5:00 AM, Santos, Weather by CustomWeather, © 2015

Note: Actual official high and low records may vary slightly from our data, if they occured in-between our weather recording intervals... More about our weather records

Advertising

Santos weather history for previous 24 hours

 ConditionsComfort  
Time TempWeatherWind HumidityBarometerVisibility
5:00 AM
Wed, Jul 29
54 °FCool.2 mph82%30.21 "Hg4 mi
4:00 AM54 °FFog.1 mph88%30.18 "Hg3 mi
3:00 AM55 °FCool.No wind82%30.18 "Hg4 mi
2:00 AM55 °FCool.No wind82%30.21 "Hg4 mi
1:00 AM57 °FCool.1 mph72%30.21 "Hg4 mi
12:00 AM57 °FCool.No wind72%30.21 "Hg5 mi
11:00 PM
Tue, Jul 28
59 °FClear.2 mph68%30.24 "Hg6 mi
10:00 PM57 °FClear.1 mph77%30.24 "Hg5 mi
9:00 PM59 °FClear.1 mph72%30.24 "Hg10 mi
8:00 PM61 °FClear.3 mph63%30.21 "Hg10 mi
7:00 PM63 °FClear.6 mph68%30.21 "Hg10 mi
6:00 PM63 °FClear.10 mph68%30.18 "Hg10 mi
5:00 PM72 °FClear.8 mph38%30.18 "Hg10 mi
4:00 PM73 °FSunny.7 mph31%30.18 "Hg10 mi
3:00 PM73 °FSunny.6 mph27%30.15 "Hg10 mi
2:00 PM73 °FSunny.5 mph29%30.18 "Hg10 mi
1:00 PM73 °FPassing clouds.6 mph29%30.21 "HgN/A
12:00 PM70 °FClear.6 mph43%30.21 "Hg6 mi
11:00 AM66 °FHaze.3 mph64%30.24 "Hg3 mi
10:00 AM61 °FScattered clouds.2 mph77%30.24 "Hg2 mi
9:00 AM55 °FFog.6 mph88%30.24 "Hg1 mi
8:00 AM36 °FFog.6 mph100%30.21 "Hg1 mi
7:00 AM54 °FFog.3 mph94%30.18 "Hg1 mi
6:00 AM54 °FCool.3 mph94%30.15 "Hg1 mi
Weather by CustomWeather, © 2015

See weather overviewHow to use our weather pages